Location: Saint Francis Village
(32.6154°N, 97.4559°W)
Time: 05:59:10
(UTC+00:00)

Tiangong - Visible Passes

Search period start: 14 October 2024 00:00
Search period end: 24 October 2024 00:00
Orbit: 371 x 377 km, 41.5° (Epoch: 13 October)

Date Brightness Start Highest point End Pass type
(mag) Time Alt. Az. Time Alt. Az. Time Alt. Az.
15 Oct 0.4 11:18:00 10° S 11:20:11 18° SE 11:22:23 10° E visible
16 Oct -2.0 11:50:19 10° SW 11:53:23 71° SSE 11:56:30 10° ENE visible
17 Oct -0.5 10:50:36 30° SE 10:50:36 30° SE 10:53:03 10° E visible
18 Oct -2.2 11:22:48 48° W 11:23:27 66° NNW 11:26:32 10° ENE visible
19 Oct 1.2 10:22:48 13° ENE 10:22:48 13° ENE 10:23:10 10° ENE visible
19 Oct -0.8 11:54:47 14° WNW 11:56:50 25° NNW 11:59:29 10° NE visible
20 Oct -0.3 10:54:38 25° NNE 10:54:38 25° NNE 10:56:15 10° NE visible
21 Oct -0.4 11:26:19 20° NNW 11:26:39 20° NNW 11:29:03 10° NE visible
22 Oct 0.1 11:58:08 10° NW 12:00:07 16° N 12:02:06 10° NE visible
23 Oct 0.4 10:57:23 15° NNE 10:57:23 15° NNE 10:58:24 10° NE visible
